Regional Weather Roundup
Issued by NWS

Home | Current Version | Previous Version | Graphics & Text | Print | Product List | Glossary Off
Versions: 1 2 3 4 5 6 7 8 9 10 11 12 13 14 15 16 17 18 19 20 21 22 23 24 25 26 27 28 29 30 31 32 33 34 35 36 37 38 39 40 41 42 43 44 45 46 47 48 49 50

000
ASUS43 KMPX 231710
RWRMN
WEATHER ROUNDUP FOR MINNESOTA
NATIONAL WEATHER SERVICE TWIN CITIES/CHANHASSEN MN
1200 PM CDT THU OCT 23 2014


NOTE: "FAIR" INDICATES FEW OR NO CLOUDS BELOW 12,000 FEET WITH NO
SIGNIFICANT WEATHER AND/OR OBSTRUCTIONS TO VISIBILITY. N/A MEANS
CURRENT SKY AND/OR WEATHER CONDITIONS ARE NOT AVAILABLE.

MNZ060>063-068>070-231800-
   Twin Cities Metro

CITY           SKY/WX    TMP DP  RH WIND       PRES   REMARKS
TWIN CITIES    MOSUNNY   59  52  77 W7        30.00F
ST PAUL        CLOUDY    57  53  86 SE5       30.01F
CRYSTAL        MOSUNNY   60  52  74 W5        29.99S
BLAINE         PTSUNNY   61  55  82 MISG        N/A
LAKEVILLE      CLOUDY    55  52  88 SW6       30.01S
EDEN PRAIRIE   MOSUNNY   58  52  80 SW8       30.00S
SOUTH ST PAUL  CLOUDY    57  53  84 CALM      30.00S
LAKE ELMO      CLOUDY    55  52  88 S6        30.02S
$$
MNZ001>005-007-008-013>017-022>024-027-028-231800-
   Northwest Minnesota

CITY           SKY/WX    TMP DP  RH WIND       PRES   REMARKS
BEMIDJI        SUNNY     61  44  53 SW12      29.90F
HALLOCK        SUNNY     57  45  62 SW9       29.83S
ROSEAU         MOSUNNY   57  48  72 S10       29.84F
WARROAD        MOSUNNY   57  50  77 S10       29.84S
THIEF RVR FALL SUNNY     54  43  66 S10       29.88F
CROOKSTON      SUNNY     55  46  71 S10       29.89S
FOSSTON        SUNNY     55  46  71 S9        29.91F
DETROIT LAKES  SUNNY     57  45  62 S5        29.94F
MOORHEAD       SUNNY     55  48  76 S9        29.93F
PARK RAPIDS    SUNNY     56  48  74 VRB6      29.94S
MAHNOMEN       FAIR      56  45  65 SW12      29.92S
$$
MNZ006-009>011-018-025>026-231800-
   North Central Minnesota

CITY           SKY/WX    TMP DP  RH WIND       PRES   REMARKS
BAUDETTE       SUNNY     61  47  59 S12       29.85S
FLAG ISLAND    PTSUNNY   52  46  82 SW9       29.82R
INTL FALLS     MOSUNNY   60  49  66 SW10      29.88S
WASKISH        SUNNY     61  48  63 SW9       29.88S
BIG FORK       MOSUNNY   59  52  77 S10       29.92S
LONGVILLE      MOSUNNY   55  50  82 SW7       29.94F
GRAND RAPIDS   CLOUDY    52  46  82 S10       29.95S
CRANE LAKE     PTSUNNY   52  48  87 S5        29.93F
ORR            PTSUNNY   55  46  71 S5        29.90S
COOK           MOSUNNY   54  48  82 SE9       29.92F
WALKER         FAIR      55  47  75 SW8       29.93S
$$
MNZ012-019>021-037-231800-
   Northeast Minnesota

CITY           SKY/WX    TMP DP  RH WIND       PRES   REMARKS
DULUTH         FOG       50  48  93 SW8       29.96S VSB 3/4
ELY            CLOUDY    48  46  93 SW6       29.94F
HIBBING        CLOUDY    52  48  86 SW6       29.95S
EVELETH        CLOUDY    50  46  87 S6        29.96S
DULUTH HARBOR  CLOUDY    52  48  87 SW7       29.98S
TWO HARBORS    CLOUDY    52  39  62 SW6       29.95S HAZE
SILVER BAY     FOG       48  46  93 CALM      29.95S VSB 3/4
GRAND MARAIS     N/A     48  46  93 CALM      29.98F
G MARAIS ARPRT DRZL/FOG  45  41  87 S5        29.97F VSB 1/4
$$
MNZ029>031-032-039>041-046>048-054>057-064-231800-
   West Central Minnesota

CITY           SKY/WX    TMP DP  RH WIND       PRES   REMARKS
FERGUS FALLS   SUNNY     57  43  58 S5        29.97S
WHEATON        SUNNY     61  45  55 W6        29.98S
MORRIS         SUNNY     61  48  63 SW3       29.96F
ALEXANDRIA     SUNNY     57  47  69 SW7       29.98S
ELBOW LAKE     FAIR      57  46  67 SW5       29.97S
WADENA         SUNNY     57  48  72 SW8       29.95S
GLENWOOD       SUNNY     59  50  72 SW6       29.98S
APPLETON       SUNNY     63  48  59 SW5       29.98F
BENSON         SUNNY     57  48  72 W5        29.99S
ORTONVILLE     SUNNY     64  45  48 W7        29.97F
MADISON        SUNNY     66  46  48 W6        29.98F
WILLMAR        FAIR      61  48  63 W6        30.00F
$$
MNZ033>034-036-042>043-049>051-058-059-231800-
   Central Minnesota

CITY           SKY/WX    TMP DP  RH WIND       PRES   REMARKS
ST CLOUD       CLOUDY    54  50  86 SW5       29.99F
SAUK CENTRE    FAIR      58  51  78 SW3       29.98F
PAYNESVILLE    SUNNY     54  51  89 CALM      29.99S
AITKIN         CLOUDY    57  50  77 S6        29.95F
PINE RIVER     SUNNY     55  48  76 S6        29.98F
BRAINERD       MOSUNNY   54  50  86 S7        29.97S
STAPLES        SUNNY     55  48  76 SW3       29.96F
LONG PRAIRIE   FAIR      55  50  82 S7        29.98S
LITTLE FALLS   CLOUDY    52  48  87 SW5       29.98S
LITCHFIELD     SUNNY     61  55  82 CALM      30.00F
BUFFALO        CLOUDY    54  50  87 SW6       30.01S
MAPLE LAKE     CLOUDY    54  53  97 SW3       30.01S
$$
MNZ037-044-045-052-053-231800-
   East Central Minnesota

CITY           SKY/WX    TMP DP  RH WIND       PRES   REMARKS
PRINCETON      CLOUDY    55  54  94 S6        29.99S FOG
MORA           CLOUDY    52  52 100 SW5       30.00S
CAMBRIDGE      PTSUNNY   57  48  72 SW3       29.98S HAZE
RUSH CITY      CLOUDY    53  52  96 SW3       30.00S
MOOSE LAKE     CLOUDY    50  50 100 SW7       29.96S
HINCKLEY       CLOUDY    52  52 100 S6        29.98F
CLOQUET        CLOUDY    50  48  93 W7        29.97S FOG
MCGREGOR       CLOUDY    52  50  93 SW7       29.97F
$$
MNZ071>073-080-081-089-090-097-098-231800-
   Southwest Minnesota

CITY           SKY/WX    TMP DP  RH WIND       PRES   REMARKS
MONTEVIDEO     SUNNY     63  61  94 CALM      30.00S
GRANITE FALLS  SUNNY     60  50  70 SW3       30.01F
CANBY          SUNNY     65  45  48 W10       30.01S
MARSHALL       SUNNY     66  46  48 W10       29.99F
REDWOOD FALLS  SUNNY     61  49  64 CALM      30.00F
OLIVIA         SUNNY     59  48  67 SW5       29.99F
PIPESTONE      SUNNY     57  48  72 CALM      30.02F
WINDOM         SUNNY     63  52  67 SW9       30.02F
WORTHINGTON    SUNNY     61  46  59 W9        30.04S
JACKSON        SUNNY     61  52  72 W9        30.04S
TRACY          SUNNY     65  49  56 SW8       30.01F
SLAYTON        SUNNY     60  47  61 W8        30.03F
$$
MNZ065>067-074>077-082>085-091>093-231800-
   South Central Minnesota

CITY           SKY/WX    TMP DP  RH WIND       PRES   REMARKS
MANKATO        SUNNY     59  48  67 W6        30.02S
NEW ULM        SUNNY     61  52  72 W8        30.01F
ST JAMES       SUNNY     63  52  67 SW5       30.03S
FAIRMONT       SUNNY     63  46  55 W6        30.03F
GLENCOE        MOSUNNY   57  56  95 SW5       30.00S
FARIBAULT      CLOUDY    55  54  94 SW6       30.03R
OWATONNA       MOSUNNY   55  52  88 SW5       30.02S
WASECA         CLOUDY    55  48  76 SW6       30.05R
ALBERT LEA     CLOUDY    54  54 100 SW5       30.03R
$$
MNZ078>079-086>088-094>096-231800-
   Southeast Minnesota

CITY           SKY/WX    TMP DP  RH WIND       PRES   REMARKS
ROCHESTER      CLOUDY    51  49  92 SW9       30.04S FOG
STANTON        CLOUDY    55  51  89 W6        30.01S
DODGE CENTER   CLOUDY    52  52 100 SW7       30.02S
WINONA         CLOUDY    52  48  87 SE5       30.04F
AUSTIN         CLOUDY    52  52 100 S6        30.02F FOG
PRESTON        CLOUDY    48  47  96 S8        30.04S FOG
$$
ABBREVIATIONS USED IN REMARKS
   TC - TEMPERATURES IN CELSIUS
  WCI - WIND CHILL INDEX
   HX - HEAT INDEX
  VSB - VISIBILITY
$$



USA.gov is the U.S. government's official web portal to all federal, state and local government web resources and services.